Temperature
23 23 23 24 27 28 28 30 31 31 31 30 30 30 29 28 26 24 23 23 22 22 22 21 21 21 21 20 20 20 20 20 19 19 19 19 19 19 19 19 19 19 19 19 18 18 18 18 18
23 23 24 27 28 28 29 30 31 31 31 30 30 29 28 27 26 24 23 23 22 22 21 21 21 21 20 20 20 20 20 19 19 19 19 19 19 19 19 19 19 18 18 18 18 18 18 18 18
24 24 26 29 28 29 29 30 31 31 30 30 29 28 27 26 25 24 23 22 21 21 21 21 21 21 20 20 20 20 19 19 19 19 19 19 19 19 19 18 18 18 18 18 18 18 18 18 18
23 26 28 29 29 30 30 31 31 31 30 30 29 28 26 25 24 23 22 22 21 21 21 21 21 20 20 20 20 20 19 19 19 19 19 19 19 19 18 18 18 18 18 18 18 18 18 18 18
25 27 29 28 29 31 32 32 31 31 31 30 29 28 26 24 24 23 22 22 21 21 20 21 20 20 20 20 19 19 19 19 19 19 19 19 18 18 18 18 18 18 18 18 18 18 18 18 18
27 30 29 29 30 31 32 31 31 31 30 30 29 27 25 24 23 23 22 22 21 20 20 21 20 20 20 20 19 19 19 19 19 18 18 18 18 18 18 18 18 18 18 18 18 18 18 18 18
28 29 29 29 30 31 31 31 31 30 29 29 29 27 25 23 23 23 23 22 21 21 20 20 20 20 20 19 19 19 19 19 19 18 18 18 18 18 18 18 18 18 17 17 17 17 18 18 17
29 30 29 30 30 30 31 31 30 29 28 28 28 27 25 24 23 23 22 22 21 21 20 20 19 19 19 19 19 19 19 19 19 18 18 18 18 18 18 18 17 17 17 17 17 17 17 17 17
29 29 28 29 30 30 31 31 30 29 29 28 27 26 25 24 23 23 22 22 21 21 20 19 19 19 19 19 19 18 18 18 18 18 18 18 18 17 17 17 17 17 17 17 17 17 17 17 17
30 29 29 30 30 30 30 30 30 30 29 28 27 25 24 23 23 23 23 22 21 20 20 20 19 19 19 18 18 18 18 18 18 18 18 17 17 17 17 17 17 17 17 17 17 17 17 17 17
30 29 30 30 30 30 30 30 30 29 29 28 26 25 24 23 23 23 22 22 21 20 20 19 19 19 19 18 18 18 18 17 17 17 17 17 17 17 17 17 16 16 16 16 16 16 16 16 16
30 31 30 30 29 30 30 29 29 29 28 27 26 24 24 23 23 23 22 21 21 20 20 19 19 19 18 18 18 18 18 17 17 17 17 17 17 17 16 16 16 16 16 16 16 16 16 16 16
30 31 31 30 30 30 29 29 29 28 27 26 25 24 24 23 23 22 22 21 21 20 19 19 19 18 18 18 18 18 17 17 17 17 17 17 16 16 16 16 16 16 16 16 16 16 16 16 16
30 30 30 30 30 30 29 29 28 27 26 26 25 24 24 23 23 22 21 21 20 20 19 19 18 18 18 18 17 17 17 17 17 17 17 16 16 16 16 16 16 16 16 16 16 16 16 16 15
30 30 30 30 30 30 29 28 28 26 26 25 25 24 23 23 22 21 21 20 20 19 19 18 18 18 18 17 17 17 17 17 17 17 16 16 16 16 16 16 16 16 16 16 15 15 15 15 15
29 29 28 30 30 29 28 27 27 26 26 25 25 24 23 22 22 21 20 20 19 19 18 18 18 18 17 17 17 17 17 16 16 16 16 16 16 16 16 15 15 15 15 15 15 15 15 15 15
28 27 27 28 29 29 28 26 26 26 26 25 25 24 23 22 22 21 20 20 19 18 18 17 17 17 17 17 17 17 16 16 16 16 16 16 16 16 16 15 15 15 15 15 15 15 15 15 15
27 28 27 28 29 28 27 26 26 26 25 25 24 24 23 22 21 21 20 19 19 18 18 17 17 17 17 17 16 16 16 16 16 16 16 16 16 15 15 15 15 15 15 15 15 15 15 15 15
28 28 27 28 29 28 27 26 27 26 26 25 25 24 23 23 22 21 20 19 18 18 17 17 17 17 17 16 16 16 16 16 16 16 16 16 15 15 15 15 15 15 15 15 15 15 15 14 14
28 27 28 28 29 28 27 27 27 27 26 25 25 24 23 23 21 20 20 19 18 18 17 17 17 16 16 16 16 16 16 16 16 15 15 15 15 15 15 15 15 15 14 14 14 14 14 14 14
28 28 28 28 29 29 27 26 26 26 26 25 25 24 23 23 21 20 19 19 18 18 17 17 16 16 16 16 16 15 15 15 15 15 15 15 15 15 15 15 15 15 14 14 14 14 14 14 14
28 29 29 29 28 28 28 26 25 25 25 25 25 24 23 22 21 20 19 18 18 17 17 17 16 16 16 16 15 15 15 15 15 15 15 15 15 15 15 15 14 14 14 14 14 14 14 14 13
29 29 29 28 27 26 27 26 26 26 25 25 25 24 23 22 21 20 19 18 18 17 17 16 16 16 15 15 15 15 15 15 15 15 15 15 15 15 14 14 14 14 14 14 14 14 13 13 13
29 29 29 28 27 25 25 25 25 25 25 25 25 24 23 22 21 20 19 18 18 17 17 16 16 16 15 15 15 15 15 15 15 15 14 14 14 14 14 14 14 14 14 13 13 13 13 13 13
29 27 26 25 25 25 26 26 25 25 26 25 25 24 23 22 21 20 19 19 18 17 17 16 16 16 15 15 15 14 14 14 14 14 14 14 14 14 14 14 14 14 14 13 13 13 13 13 13
28 28 25 24 24 26 26 25 25 25 25 25 24 23 23 22 21 20 19 18 18 17 17 16 16 15 15 14 14 14 14 14 14 14 14 14 14 14 14 14 13 13 13 13 13 13 13 12 12
28 28 28 26 26 25 25 25 24 25 25 25 24 23 23 22 21 20 19 18 18 17 16 16 15 15 15 14 14 14 14 14 14 14 14 14 14 14 13 13 13 13 13 13 13 13 12 12 12
29 29 27 26 25 24 25 25 24 24 25 25 24 24 23 22 21 20 19 18 17 17 16 16 15 15 15 14 14 14 14 14 14 14 14 14 13 13 13 13 13 13 12 12 13 12 12 12 12
29 28 27 27 26 25 24 24 26 25 25 25 24 23 22 21 20 20 19 18 17 16 16 15 15 15 14 14 14 14 14 14 14 14 14 13 13 13 13 13 13 12 12 12 12 12 12 12 12
29 29 28 26 25 26 25 24 26 25 25 25 24 23 22 21 20 19 18 18 17 16 16 15 15 15 14 14 14 14 14 14 13 13 13 13 13 13 13 12 12 12 12 12 12 12 12 12 12
Wind_Speed
10 13 11 8 7 6 5 3 3 5 7 8 7 8 10 10 8 8 6 10 13 14 14 16 14 12 11 10 9 9 9 9 8 8 8 7 7 7 7 7 7 6 6 6 5 5 4 3 3
11 13 10 7 7 6 2 2 3 6 7 6 6 8 9 9 10 9 8 10 13 13 13 14 14 12 11 10 10 9 9 9 8 8 7 7 6 6 6 6 5 5 5 5 4 4 4 3 3
12 16 8 7 8 5 2 3 3 6 5 4 5 7 6 7 9 8 8 9 11 11 13 16 15 13 11 10 9 9 9 8 8 7 7 7 6 6 5 5 5 4 4 4 3 3 3 3 3
8 8 7 6 7 5 1 2 1 3 3 4 4 6 7 7 7 9 9 10 11 11 13 15 15 13 12 10 9 9 9 8 7 7 6 6 6 5 5 5 4 4 4 4 4 4 4 4 4
11 8 9 8 8 4 1 2 2 2 2 4 5 7 9 9 11 11 9 10 10 11 13 14 14 14 12 10 9 8 8 8 7 6 6 5 5 5 5 5 5 5 5 5 5 5 6 6 6
9 9 9 8 7 2 0 2 2 3 2 3 6 7 7 9 10 10 10 10 11 11 13 13 13 14 12 11 10 8 8 7 6 6 6 5 6 5 5 5 5 5 5 5 5 6 7 7 8
11 10 10 10 7 2 1 2 2 3 3 3 3 5 8 9 7 8 9 10 11 11 11 10 10 11 11 10 9 9 8 7 6 6 6 6 6 7 7 6 6 5 5 6 7 7 7 8 9
10 10 12 8 7 3 2 2 2 3 2 2 1 2 7 9 10 9 8 9 10 10 10 9 9 8 8 8 9 9 8 8 7 7 7 7 8 8 9 8 7 6 7 7 7 8 9 10 11
12 10 9 7 5 3 4 1 1 2 2 2 3 6 8 11 11 9 7 7 8 8 7 8 8 6 6 6 8 8 8 8 8 8 9 8 8 8 8 8 7 8 8 9 9 9 11 11 12
8 8 7 6 5 4 4 3 1 2 2 2 5 9 10 8 9 9 7 7 7 7 6 6 6 5 4 4 6 6 7 8 8 6 7 8 7 6 5 7 8 9 9 9 10 11 11 11 9
10 10 6 5 5 5 4 3 3 3 2 1 5 8 9 8 7 7 6 6 6 7 5 5 4 4 3 3 4 3 3 5 6 6 6 6 4 4 3 5 6 7 8 8 8 9 9 8 6
11 11 6 5 4 6 4 3 3 2 2 4 6 8 6 7 6 6 6 5 4 5 5 5 4 4 3 2 1 2 1 2 3 4 4 3 2 2 2 1 3 5 5 5 4 4 5 5 5
11 10 7 6 5 4 3 4 3 2 3 4 5 7 6 5 5 5 5 5 5 4 3 4 4 2 2 2 1 1 1 1 2 2 3 2 2 2 1 1 1 3 3 2 3 3 3 3 4
10 10 8 7 6 4 4 4 3 1 4 3 4 5 5 5 4 4 5 4 4 3 2 3 3 3 2 1 1 1 1 0 1 2 2 3 2 1 1 2 2 2 2 2 2 3 2 3 3
10 11 10 8 8 5 4 5 3 3 4 4 3 4 5 5 4 4 4 3 4 3 2 2 2 3 2 1 1 1 1 1 1 2 2 2 1 1 1 2 2 2 2 2 2 3 3 3 4
12 11 10 7 5 3 4 5 2 5 4 3 3 4 4 4 4 4 4 3 3 2 2 0 0 3 2 0 1 1 1 1 1 1 2 2 1 1 1 2 2 2 2 1 2 2 2 3 3
10 10 9 5 5 5 4 3 2 4 4 3 4 4 4 4 3 4 4 4 3 2 2 1 1 2 2 1 2 2 1 1 1 1 1 2 2 2 2 2 1 2 2 2 3 1 2 3 3
8 7 6 7 5 4 3 4 5 6 5 5 5 4 4 4 4 4 4 4 3 3 3 3 2 1 2 1 1 2 2 1 1 1 1 2 1 2 2 2 2 2 2 2 1 2 2 2 3
9 8 7 8 5 3 5 4 4 6 5 4 5 5 4 4 5 6 5 4 4 3 3 3 2 2 1 1 1 1 1 1 1 2 2 2 1 1 1 1 1 1 1 1 1 2 3 3 3
10 10 9 7 4 4 4 5 5 7 6 5 5 5 4 4 4 5 5 4 4 3 3 3 2 2 0 0 1 1 1 1 1 0 2 2 2 1 2 1 1 1 1 1 2 2 3 3 3
11 9 9 7 6 8 6 6 4 5 5 5 5 4 3 4 5 4 4 3 3 3 2 2 2 1 0 0 1 1 1 2 1 0 1 1 1 1 0 1 1 1 1 1 2 2 3 4 4
9 7 8 8 8 7 7 5 4 6 5 4 4 4 3 4 5 4 3 3 3 3 3 3 3 2 1 1 1 2 1 1 1 0 0 0 1 1 1 0 0 1 1 2 3 2 3 4 5
8 8 9 8 8 8 7 6 4 6 5 5 4 4 4 4 5 2 2 3 3 3 3 4 3 2 1 0 1 1 2 1 1 1 0 1 1 1 0 0 0 1 1 2 2 2 3 3 4
7 8 10 9 8 8 7 6 4 3 5 5 5 4 5 5 5 3 3 3 3 3 3 4 3 2 1 0 1 2 2 2 2 1 1 1 1 0 1 1 0 1 1 2 2 2 3 3 4
7 6 6 6 5 6 5 5 1 4 5 5 5 5 5 5 4 4 3 3 3 3 3 3 3 2 1 1 2 2 2 2 2 2 1 1 1 1 1 1 1 1 2 2 1 2 3 4 4
7 7 6 6 7 7 4 2 3 5 6 5 6 7 6 5 4 4 4 4 3 3 4 4 4 3 2 2 1 1 1 1 1 1 2 1 0 0 1 0 1 1 1 1 1 2 2 3 4
7 7 7 7 9 8 3 2 5 6 7 6 6 6 6 5 4 4 4 4 3 4 4 3 3 2 1 1 1 1 1 2 2 2 2 1 1 1 1 1 1 0 1 1 1 2 2 2 3
7 7 5 6 6 7 5 3 4 7 7 6 6 5 5 6 5 4 4 4 4 4 4 3 3 1 1 0 1 0 1 1 1 2 2 2 2 1 1 1 1 1 1 1 1 2 2 2 3
6 8 6 5 6 7 6 2 3 5 5 5 5 5 5 5 5 4 4 4 4 4 4 3 2 1 1 0 1 2 1 1 1 1 1 1 1 1 1 1 1 1 1 1 2 3 2 3 3
8 8 7 5 6 6 6 1 4 5 4 4 5 5 5 5 5 5 5 4 4 3 3 2 1 1 0 0 0 1 1 1 1 1 1 1 1 1 1 1 2 2 2 2 3 3 3 3 3
Wind_Direction
256 253 246 253 250 246 262 293 45 60 66 57 50 55 53 51 55 90 100 87 96 109 121 123 122 123 123 122 122 124 128 131 132 133 133 131 129 126 126 127 128 128 131 135 140 148 154 159 164
265 260 251 249 256 254 266 357 39 57 68 67 61 65 66 66 78 98 95 91 103 114 123 124 124 125 124 124 124 126 131 133 136 139 141 140 138 136 135 137 137 136 140 144 151 167 175 181 190
263 264 261 252 259 274 316 26 38 74 76 68 71 61 60 71 84 100 107 108 108 114 116 122 126 125 125 125 127 129 134 137 139 141 143 144 146 149 151 156 157 157 161 165 179 195 200 207 216
255 246 238 259 272 278 299 97 55 78 96 91 90 89 83 69 92 109 119 118 117 120 118 126 128 127 126 127 131 132 132 136 138 144 146 149 155 161 169 177 180 182 188 194 207 209 218 226 237
244 252 245 256 266 280 325 42 30 35 64 84 87 90 93 89 102 116 122 120 121 119 116 127 134 133 134 139 141 139 138 137 139 142 148 153 165 177 189 196 202 206 207 207 214 222 232 237 244
250 249 255 261 260 262 299 49 2 44 24 89 108 108 103 105 114 125 125 120 117 117 119 127 140 142 145 149 149 147 143 143 149 157 164 173 181 187 197 206 214 219 222 225 228 234 240 244 247
256 271 269 274 283 296 38 63 46 45 27 20 80 113 121 119 121 123 123 122 117 115 119 129 138 146 151 154 155 153 150 152 163 172 180 190 195 201 205 209 219 224 230 233 236 238 243 249 252
260 277 284 282 292 309 53 77 76 89 91 54 72 110 131 134 132 126 130 124 118 120 126 133 137 142 152 158 160 160 161 168 180 189 196 204 210 214 214 212 214 221 231 236 238 243 249 251 253
255 266 283 302 312 324 346 344 75 129 155 128 81 92 116 135 135 135 134 122 119 118 118 125 133 138 148 154 157 169 171 182 194 203 211 213 217 218 215 220 206 219 229 234 238 244 245 248 251
248 262 280 309 317 317 310 323 332 243 202 131 92 101 117 137 142 145 140 135 126 118 119 119 129 143 150 143 149 176 183 182 202 204 207 219 225 226 215 197 204 216 228 234 237 242 246 246 246
248 259 285 315 322 304 303 321 304 297 292 78 110 114 134 151 148 139 137 135 130 124 117 113 121 128 129 127 157 182 187 177 207 202 205 218 227 226 197 185 198 218 229 232 233 236 238 237 240
259 261 261 277 293 287 301 314 309 305 352 72 104 122 144 151 144 142 134 125 121 124 135 124 120 113 117 119 162 181 191 188 199 183 208 215 215 233 214 206 197 208 218 220 223 230 240 249 260
267 274 269 262 251 274 286 291 292 349 64 73 95 130 147 143 135 127 118 127 126 130 126 126 117 109 96 96 256 188 210 203 189 159 180 227 220 229 222 234 222 236 233 225 238 256 248 248 258
272 280 280 269 261 249 257 258 243 163 107 97 112 126 135 134 136 130 127 134 132 138 132 123 129 117 101 103 289 269 259 208 172 128 161 198 224 229 250 248 232 254 254 261 263 272 265 256 263
277 278 269 249 246 243 249 257 213 135 129 131 128 119 124 123 135 130 121 120 120 126 109 93 140 121 128 157 270 260 258 224 202 162 172 190 220 233 252 274 253 260 259 247 262 271 275 263 263
270 264 260 245 232 228 246 275 130 139 141 142 143 133 123 120 133 126 122 111 99 104 96 127 146 112 123 104 277 281 279 256 210 177 158 179 209 215 233 264 264 272 273 269 259 260 278 278 279
257 257 256 253 205 220 234 277 156 165 167 152 141 137 134 136 151 134 127 123 122 119 120 131 60 124 151 190 238 263 259 278 263 187 170 174 203 208 212 248 255 278 277 269 277 297 287 293 290
273 271 275 269 224 217 245 257 185 174 175 165 153 159 163 164 152 137 130 133 122 110 122 122 117 118 161 174 217 261 259 264 278 249 149 168 215 223 222 235 228 267 277 286 299 307 287 285 283
279 278 260 257 239 216 247 246 205 180 185 180 166 165 172 150 140 133 128 124 120 110 111 119 137 127 159 176 228 241 254 271 248 218 151 169 197 234 240 282 239 259 272 278 303 293 284 269 268
272 272 268 264 241 239 243 245 209 183 180 183 164 158 155 135 121 124 128 123 125 126 125 130 132 127 179 90 302 281 280 258 245 1 125 170 177 207 227 245 249 247 271 276 287 280 287 286 282
257 255 265 269 264 248 237 250 214 170 164 160 158 162 148 135 125 128 130 124 130 126 144 145 131 111 91 303 294 326 320 265 238 127 156 162 170 184 241 220 238 266 269 271 269 269 268 279 278
266 266 266 270 272 266 247 258 205 183 167 161 167 166 141 130 123 127 132 125 123 125 135 119 109 88 70 335 327 299 287 307 324 14 104 227 201 178 158 198 213 261 278 297 280 287 286 279 281
271 270 267 271 272 282 283 271 242 175 174 169 169 158 136 113 105 111 123 121 126 122 117 111 106 101 85 343 315 309 318 323 353 358 3 295 239 206 120 154 198 268 282 294 302 312 299 289 290
260 272 276 266 261 265 261 257 255 196 173 165 159 144 124 119 124 137 134 128 129 125 120 117 129 139 144 79 0 334 337 339 344 319 313 297 259 145 34 334 271 256 275 282 280 284 295 299 298
252 267 279 278 267 261 242 245 262 130 129 148 145 133 121 119 122 121 125 119 108 114 112 107 108 96 85 60 7 343 335 317 283 279 279 291 319 83 33 339 299 275 258 259 267 285 287 292 294
254 253 262 286 292 292 257 254 114 111 118 131 133 133 135 131 132 132 123 111 105 99 100 98 99 91 68 46 353 314 323 304 312 299 289 283 326 90 155 254 269 268 269 286 294 287 291 300 299
266 269 270 282 286 286 273 158 138 141 127 124 128 133 141 137 130 123 112 111 104 94 87 85 94 105 109 124 255 268 291 326 338 317 287 310 5 297 355 274 277 317 316 305 289 290 299 303 296
261 278 292 284 295 297 276 228 159 155 148 143 136 136 137 130 123 113 108 98 84 89 93 92 93 89 80 31 308 1 4 329 319 302 354 15 341 337 328 335 329 330 313 306 299 301 303 300 294
260 260 261 285 296 296 297 334 109 140 134 143 138 129 120 120 124 118 110 103 89 89 92 87 91 98 93 90 354 18 9 337 327 321 337 330 331 334 343 327 307 285 291 320 317 302 305 309 310
271 267 268 271 282 291 291 316 78 100 111 134 130 130 128 119 119 121 111 105 101 98 100 101 97 125 175 186 75 33 12 343 327 314 304 321 339 311 318 313 308 304 320 327 313 315 319 309 315
Height
1495 1494 1495 1497 1493 1487 1484 1470 1464 1465 1467 1471 1473 1474 1477 1482 1487 1499 1499 1497 1497 1498 1499 1501 1503 1505 1507 1508 1510 1512 1514 1515 1516 1518 1519 1521 1522 1523 1524 1526 1527 1528 1529 1530 1531 1532 1534 1535 1536
1494 1495 1497 1494 1489 1491 1483 1469 1467 1467 1469 1473 1474 1476 1480 1485 1490 1494 1497 1498 1498 1499 1500 1501 1503 1505 1507 1508 1510 1512 1514 1515 1517 1518 1520 1521 1522 1523 1524 1525 1526 1528 1529 1530 1531 1532 1533 1534 1535
1494 1495 1495 1487 1485 1485 1479 1469 1468 1468 1471 1473 1476 1479 1484 1489 1492 1495 1497 1498 1499 1500 1500 1502 1504 1505 1507 1508 1510 1512 1513 1515 1517 1518 1519 1521 1522 1523 1524 1525 1526 1527 1528 1529 1530 1531 1532 1533 1534
1495 1494 1491 1485 1483 1473 1469 1467 1468 1469 1472 1474 1477 1481 1488 1491 1493 1496 1497 1499 1500 1500 1501 1502 1504 1505 1507 1509 1510 1512 1514 1515 1517 1518 1519 1520 1521 1522 1523 1525 1526 1526 1527 1528 1529 1530 1531 1531 1533
1495 1491 1486 1485 1478 1468 1464 1466 1468 1470 1472 1474 1478 1483 1489 1493 1494 1496 1498 1499 1500 1501 1501 1503 1504 1506 1507 1509 1510 1512 1513 1515 1516 1517 1519 1520 1521 1522 1523 1524 1525 1525 1526 1527 1528 1528 1529 1530 1531
1493 1484 1486 1485 1474 1466 1465 1466 1469 1471 1473 1475 1479 1484 1490 1493 1494 1496 1498 1500 1501 1502 1502 1503 1504 1505 1507 1508 1510 1511 1513 1514 1516 1517 1518 1519 1520 1521 1522 1522 1523 1524 1525 1525 1526 1527 1527 1528 1529
1490 1482 1482 1478 1472 1469 1467 1468 1470 1473 1476 1478 1480 1483 1489 1493 1495 1497 1498 1500 1501 1502 1502 1503 1504 1505 1507 1508 1510 1511 1512 1514 1515 1516 1517 1518 1519 1520 1520 1521 1521 1522 1523 1523 1524 1525 1525 1526 1527
1486 1482 1479 1475 1473 1471 1467 1469 1472 1474 1478 1479 1481 1483 1489 1493 1495 1497 1498 1500 1502 1502 1503 1504 1505 1506 1507 1508 1509 1511 1512 1513 1514 1515 1516 1517 1518 1518 1519 1519 1520 1521 1521 1521 1522 1523 1523 1524 1525
1484 1484 1484 1477 1474 1471 1469 1470 1472 1475 1477 1479 1480 1483 1487 1492 1494 1497 1499 1501 1502 1503 1504 1504 1505 1506 1507 1508 1508 1510 1511 1512 1513 1514 1515 1516 1516 1517 1517 1518 1518 1519 1519 1519 1520 1520 1521 1522 1523
1480 1482 1480 1473 1470 1471 1471 1471 1472 1474 1476 1479 1482 1484 1487 1491 1493 1496 1498 1500 1502 1503 1504 1505 1506 1506 1507 1508 1508 1509 1510 1511 1512 1513 1514 1514 1515 1516 1516 1516 1517 1517 1517 1517 1518 1518 1519 1519 1520
1475 1476 1473 1472 1472 1471 1471 1472 1473 1474 1476 1478 1482 1485 1488 1491 1493 1496 1498 1500 1501 1502 1504 1504 1505 1506 1507 1507 1508 1509 1510 1510 1511 1512 1512 1513 1513 1514 1515 1515 1515 1515 1515 1515 1516 1516 1517 1517 1517
1473 1470 1470 1471 1472 1472 1472 1473 1475 1476 1479 1481 1483 1485 1487 1490 1493 1495 1497 1499 1500 1501 1502 1503 1504 1504 1505 1506 1507 1508 1509 1509 1510 1511 1511 1511 1511 1512 1513 1513 1513 1514 1514 1514 1514 1514 1515 1515 1515
1471 1469 1468 1470 1471 1471 1473 1474 1475 1477 1479 1481 1483 1486 1489 1491 1493 1495 1496 1498 1499 1500 1501 1502 1502 1502 1503 1505 1506 1507 1508 1508 1509 1509 1509 1509 1510 1511 1511 1512 1512 1512 1513 1513 1513 1512 1513 1512 1513
1470 1468 1467 1468 1469 1470 1472 1473 1475 1477 1480 1482 1484 1486 1488 1490 1492 1494 1495 1497 1498 1499 1500 1500 1501 1501 1502 1503 1504 1505 1506 1506 1507 1507 1507 1508 1509 1509 1509 1510 1510 1511 1511 1510 1510 1510 1511 1510 1510
1470 1469 1468 1466 1467 1468 1471 1473 1474 1477 1479 1482 1484 1486 1489 1490 1493 1494 1495 1497 1497 1497 1498 1498 1500 1500 1501 1502 1503 1504 1504 1504 1504 1505 1505 1506 1506 1507 1507 1508 1508 1509 1509 1509 1509 1509 1508 1508 1508
1470 1471 1473 1466 1466 1468 1474 1480 1474 1477 1479 1482 1484 1486 1489 1491 1493 1494 1494 1496 1496 1497 1497 1498 1499 1499 1499 1500 1501 1502 1502 1502 1502 1503 1503 1504 1504 1505 1505 1506 1506 1506 1507 1507 1507 1506 1506 1506 1505
1473 1477 1475 1469 1465 1467 1472 1478 1477 1478 1479 1481 1483 1486 1488 1490 1492 1493 1494 1495 1496 1496 1496 1497 1497 1498 1498 1498 1499 1500 1500 1500 1500 1500 1501 1502 1502 1503 1503 1504 1504 1504 1504 1504 1505 1504 1504 1503 1503
1476 1473 1474 1472 1464 1466 1472 1475 1474 1476 1478 1480 1482 1485 1487 1490 1491 1493 1494 1494 1495 1495 1496 1496 1496 1496 1496 1497 1497 1498 1498 1498 1498 1498 1499 1500 1500 1501 1501 1501 1502 1502 1502 1502 1502 1502 1502 1501 1501
1467 1471 1473 1466 1460 1466 1471 1473 1472 1474 1476 1478 1480 1483 1485 1488 1490 1491 1493 1493 1494 1494 1494 1495 1495 1495 1494 1494 1495 1495 1496 1496 1497 1497 1497 1497 1498 1498 1499 1499 1499 1500 1500 1500 1500 1499 1499 1499 1499
1467 1471 1469 1463 1459 1464 1469 1470 1468 1470 1473 1476 1478 1481 1483 1486 1488 1490 1491 1492 1493 1493 1493 1494 1494 1493 1493 1493 1493 1494 1494 1495 1495 1495 1494 1495 1496 1496 1497 1497 1497 1498 1498 1497 1497 1497 1497 1497 1497
1466 1467 1466 1464 1459 1460 1466 1473 1470 1469 1472 1474 1477 1479 1481 1484 1487 1489 1491 1491 1492 1492 1492 1493 1493 1492 1492 1492 1492 1493 1493 1493 1493 1493 1493 1493 1494 1495 1495 1495 1495 1495 1495 1496 1496 1495 1495 1494 1494
1465 1457 1459 1460 1465 1467 1465 1480 1473 1469 1471 1473 1476 1478 1480 1483 1486 1488 1490 1490 1491 1491 1492 1492 1492 1492 1492 1491 1491 1491 1491 1491 1492 1491 1491 1492 1492 1492 1493 1493 1493 1493 1493 1493 1493 1493 1493 1492 1492
1458 1453 1455 1458 1464 1470 1467 1475 1473 1465 1471 1472 1474 1477 1480 1482 1485 1487 1489 1490 1490 1491 1491 1491 1491 1491 1491 1491 1491 1490 1491 1491 1491 1491 1490 1491 1491 1491 1491 1491 1491 1491 1491 1491 1491 1490 1490 1489 1489
1452 1454 1455 1456 1462 1482 1472 1477 1476 1466 1468 1470 1472 1475 1479 1482 1484 1486 1488 1489 1490 1490 1490 1490 1490 1490 1490 1490 1490 1490 1489 1489 1489 1490 1490 1489 1489 1490 1489 1490 1489 1489 1489 1488 1488 1488 1487 1486 1486
1453 1464 1478 1481 1482 1479 1464 1470 1473 1461 1462 1467 1471 1474 1478 1481 1484 1486 1487 1488 1489 1489 1489 1489 1489 1489 1489 1488 1489 1489 1488 1488 1488 1488 1488 1488 1488 1488 1488 1488 1487 1487 1486 1486 1486 1485 1484 1484 1483
1454 1461 1482 1493 1489 1475 1464 1473 1469 1463 1464 1467 1470 1474 1477 1481 1483 1485 1486 1488 1488 1489 1489 1489 1488 1488 1488 1488 1489 1488 1487 1487 1487 1487 1487 1487 1487 1487 1487 1486 1486 1485 1484 1484 1483 1483 1482 1481 1480
1454 1457 1454 1467 1470 1477 1472 1469 1468 1463 1464 1467 1470 1473 1477 1480 1482 1484 1486 1487 1488 1488 1488 1489 1489 1489 1488 1488 1488 1487 1487 1486 1486 1486 1486 1486 1486 1486 1485 1484 1484 1483 1482 1482 1481 1481 1480 1479 1478
1446 1450 1458 1470 1481 1486 1477 1470 1471 1467 1465 1466 1469 1473 1476 1479 1482 1484 1485 1487 1487 1488 1488 1488 1488 1488 1488 1488 1487 1487 1486 1486 1485 1485 1485 1485 1485 1484 1483 1483 1482 1481 1481 1480 1479 1479 1478 1477 1475
1449 1453 1455 1459 1464 1480 1485 1478 1459 1462 1463 1465 1468 1472 1475 1478 1481 1483 1485 1486 1487 1487 1488 1488 1488 1488 1488 1487 1487 1486 1486 1485 1485 1485 1484 1484 1483 1483 1482 1481 1481 1480 1479 1479 1478 1477 1476 1475 1473
1443 1447 1452 1468 1470 1466 1474 1477 1457 1459 1462 1465 1468 1472 1475 1479 1481 1483 1485 1486 1487 1487 1487 1488 1488 1487 1487 1487 1486 1486 1485 1485 1484 1484 1483 1483 1482 1482 1481 1480 1479 1479 1478 1477 1476 1475 1474 1473 1471